Columbus, OH

6:01 AM EDT on March 29, 2017 (GMT -0400)
Port Columbus International

Weather History for KCMH - March, 2014

Change the Weather History Date:

Wednesday, March 5, 2014

  Actual Average Record
Temperature  
Mean Temperature 27 °F 38 °F  
Max Temperature 36 °F 47 °F 78 °F (1983)
Min Temperature 18 °F 29 °F 1 °F (1978)
Degree Days  
Heating Degree Days 38 27  
Month to date heating degree days 199 138  
Since 1 July heating degree days 4583 4133  
Cooling Degree Days 0 0  
Month to date cooling degree days 0 0  
Year to date cooling degree days 0 0  
Moisture  
Dew Point 13 °F    
Average Humidity 58    
Maximum Humidity 73    
Minimum Humidity 43    
Precipitation  
Precipitation 0.00 in 0.08 in 2.87 in (1897)
Month to date precipitation 0.22 0.41  
Year to date precipitation 5.01 5.39  
Snow  
Snow 0.00 in 0.10 in 8.60 in (1962)
Month to date snowfall 2.9 0.9  
Since 1 July snowfall 53.9 22.3  
Snow Depth 0.00 in    
Sea Level Pressure  
Sea Level Pressure 30.32 in    
Wind  
Wind Speed 8 mph (NNE)    
Max Wind Speed 17 mph    
Max Gust Speed 21 mph    
Visibility 10 miles    
Events      
T = Trace of Precipitation, MM = Missing Value Source: NWS Daily Summary

Daily Weather History Graph

Daily Weather History Graph

Search for Another Location

Airport or City:

Trip Planner

Search our weather history database for the weather conditions in past years. The results will help you decide how hot, cold, wet, or windy it might be!

Date:

Astronomy

Mar. 05, 2014 Rise Set
Actual Time 6:58 AM EST 6:27 PM EST
Civil Twilight 6:31 AM EST 6:54 PM EST
Nautical Twilight 6:00 AM EST 7:26 PM EST
Astronomical Twilight 5:29 AM EST 7:57 PM EST
Moon 9:23 AM EST (3/5) 11:35 PM EST (3/5)
Length of Visible Light 12h 23m
Length of Day
11h 29m
Waxing Crescent, 23% of the Moon is Illuminated
Mar 5
Waxing Crescent
Mar 8
First Quarter
Mar 16
Full
Mar 23
Last Quarter
Mar 30
New

Hourly Weather History & Observations

Time (EST) Temp. Windchill Dew Point Humidity Pressure Visibility Wind Dir Wind Speed Gust Speed Precip Events Conditions
12:51 AM 19.9 °F - 12.9 °F 74% 30.24 in 10.0 mi Calm Calm - N/A   Clear
1:51 AM 21.0 °F 16.2 °F 12.0 °F 68% 30.24 in 10.0 mi North 3.5 mph - N/A   Scattered Clouds
2:51 AM 19.0 °F 13.9 °F 12.0 °F 74% 30.23 in 10.0 mi North 3.5 mph - N/A   Scattered Clouds
3:51 AM 19.0 °F 13.9 °F 12.0 °F 74% 30.23 in 10.0 mi North 3.5 mph - N/A   Mostly Cloudy
4:51 AM 19.0 °F 13.9 °F 10.9 °F 71% 30.24 in 9.0 mi North 3.5 mph - N/A   Mostly Cloudy
5:51 AM 19.0 °F 10.0 °F 10.9 °F 71% 30.27 in 8.0 mi North 6.9 mph - N/A   Mostly Cloudy
6:51 AM 19.0 °F 8.2 °F 10.9 °F 71% 30.30 in 8.0 mi North 9.2 mph - N/A   Partly Cloudy
7:51 AM 19.9 °F 12.1 °F 10.9 °F 68% 30.32 in 7.0 mi North 5.8 mph - N/A   Clear
8:51 AM 24.1 °F 17.0 °F 12.0 °F 60% 30.33 in 8.0 mi North 5.8 mph - N/A   Partly Cloudy
9:51 AM 27.0 °F 18.0 °F 12.0 °F 53% 30.33 in 10.0 mi North 9.2 mph - N/A   Clear
10:51 AM 30.0 °F 24.1 °F 12.9 °F 49% 30.33 in 10.0 mi NE 5.8 mph - N/A   Clear
11:51 AM 32.0 °F 26.4 °F 12.9 °F 45% 30.35 in 10.0 mi North 5.8 mph - N/A   Scattered Clouds
12:51 PM 33.1 °F 23.9 °F 15.1 °F 48% 30.34 in 10.0 mi NNE 12.7 mph - N/A   Mostly Cloudy
1:51 PM 34.0 °F 26.6 °F 14.0 °F 44% 30.32 in 10.0 mi North 9.2 mph - N/A   Mostly Cloudy
2:51 PM 35.1 °F 27.4 °F 16.0 °F 46% 30.31 in 10.0 mi NE 10.4 mph - N/A   Mostly Cloudy
3:51 PM 33.1 °F 23.4 °F 16.0 °F 50% 30.32 in 10.0 mi NE 13.8 mph 17.3 mph N/A   Overcast
4:51 PM 32.0 °F 21.6 °F 18.0 °F 56% 30.35 in 10.0 mi NE 15.0 mph - N/A   Overcast
5:51 PM 28.9 °F 18.2 °F 17.1 °F 61% 30.37 in 10.0 mi NE 13.8 mph - N/A   Overcast
6:51 PM 27.0 °F 16.7 °F 16.0 °F 63% 30.39 in 10.0 mi NE 11.5 mph - N/A   Overcast
7:51 PM 26.1 °F 14.5 °F 15.1 °F 63% 30.40 in 10.0 mi NNE 13.8 mph 17.3 mph N/A   Partly Cloudy
8:51 PM 25.0 °F 14.8 °F 14.0 °F 63% 30.40 in 10.0 mi NE 10.4 mph - N/A   Mostly Cloudy
9:51 PM 24.1 °F 15.2 °F 10.9 °F 57% 30.41 in 10.0 mi NNE 8.1 mph - N/A   Scattered Clouds
10:51 PM 23.0 °F 11.7 °F 10.9 °F 60% 30.41 in 10.0 mi NE 11.5 mph - N/A   Scattered Clouds
11:51 PM 21.9 °F 11.7 °F 10.9 °F 63% 30.40 in 10.0 mi NE 9.2 mph - N/A   Partly Cloudy